Lid_Strength_Index
4 5 6 7 7 7 7 8 9 11 10 11 11 12 10 10 9 9 10 7 7 7 6 6 6 4 4 3 3 3 3 4 4 3 3 3 3 3
6 7 6 7 8 8 8 8 8 8 10 11 11 11 11 9 9 9 9 7 6 6 6 6 5 5 4 4 5 5 5 4 4 3 3 3 3 3
7 8 8 8 9 9 8 8 8 8 9 12 11 11 11 11 10 10 9 10 9 7 6 6 6 6 6 6 5 5 4 4 4 4 4 4 3 3
8 8 9 8 9 9 9 10 10 10 10 13 12 12 10 10 10 10 9 9 10 8 7 6 6 6 5 5 5 5 5 5 5 4 4 4 4 3
8 9 9 9 10 11 11 12 11 10 11 11 12 10 9 9 10 10 10 10 9 6 6 6 6 5 5 5 5 5 5 6 5 5 5 4 4 4
9 9 10 10 11 11 11 11 10 10 9 9 9 9 9 9 10 11 11 9 9 7 6 6 5 5 5 5 5 6 6 6 6 5 5 5 4 4
10 10 10 8 7 7 8 8 8 9 9 9 10 11 11 11 11 10 10 10 10 9 10 10 10 9 9 7 7 6 6 6 5 5 5 5 5 5
10 9 7 6 6 5 5 5 7 10 10 11 11 12 12 11 11 12 12 12 12 10 11 11 10 10 9 9 6 6 6 6 6 6 6 5 5 5
8 8 7 6 7 8 6 6 7 7 8 11 12 12 12 12 12 12 12 12 12 11 11 12 11 11 10 9 7 7 7 6 6 6 5 5 5 4
9 10 10 10 9 8 9 10 10 9 9 9 11 11 11 10 9 9 11 11 11 10 11 13 11 12 11 11 7 7 6 6 6 5 5 4 4 4
11 10 11 12 8 8 10 11 12 10 7 7 7 8 8 8 9 11 12 11 13 12 12 13 13 13 12 12 10 7 7 6 5 4 4 3 4 4
12 12 8 10 8 8 11 11 12 11 10 10 10 9 8 9 8 11 12 13 11 14 10 13 13 12 14 12 11 10 9 6 5 5 4 3 4 7
12 12 11 9 8 8 8 10 10 10 10 11 11 10 10 9 9 9 9 10 11 11 10 10 11 11 12 11 10 10 10 9 8 7 5 4 4 5
12 11 10 8 8 9 9 8 9 9 11 12 12 11 11 10 10 9 9 9 9 10 9 10 10 11 11 11 11 10 9 7 7 8 7 6 5 5
11 10 9 9 10 10 10 10 9 11 12 13 13 12 11 10 9 9 9 9 9 9 8 9 9 9 9 10 10 10 8 8 8 7 7 7 7 6
10 11 11 11 10 11 11 10 10 11 12 12 12 11 10 10 10 10 10 10 10 10 9 8 8 8 9 10 10 10 9 9 8 7 7 7 7 6
11 12 13 12 12 12 11 11 11 11 11 11 11 12 11 10 10 10 10 11 11 11 11 9 8 7 8 9 10 10 10 9 7 7 7 8 7 7
12 13 13 12 12 12 12 12 11 11 11 11 11 10 10 10 10 10 10 11 11 11 10 9 9 9 9 9 6 9 10 10 9 9 9 10 9 8
13 13 13 12 12 12 12 12 12 11 11 11 11 11 10 10 10 11 11 10 10 10 10 9 8 9 11 12 10 6 10 9 10 10 10 9 8 7
12 13 13 12 12 12 11 11 11 11 11 11 10 10 10 11 12 11 10 11 11 10 10 9 9 9 10 10 10 9 7 9 9 9 10 9 7 4
11 12 12 12 12 12 11 12 12 12 11 11 10 10 11 11 11 11 10 10 9 9 10 10 8 6 7 7 10 10 9 7 7 8 8 9 8 7
11 11 11 11 11 12 11 11 11 10 10 11 11 11 11 10 11 10 10 10 10 10 9 9 8 8 9 10 11 10 10 8 7 6 5 5 8 9
11 11 12 12 12 11 11 11 10 11 11 11 11 11 10 10 10 10 10 10 9 9 9 10 9 8 9 9 9 10 9 9 9 9 8 5 4 4